TimeAKST,TemperatureF,Dew PointF,Humidity,Sea Level PressureIn,VisibilityMPH,Wind Direction,Wind SpeedMPH,Gust SpeedMPH,PrecipitationIn,Events,Conditions,WindDirDegrees,DateUTC
12:37 AM,-18.4,-23.8,76,29.78,10.0,SW,3.5,-,0.00,,Mostly Cloudy,220,2013-02-25 09:37:00
12:53 AM,-18.9,-24.0,78,29.79,10.0,Calm,Calm,-,0.00,,Scattered Clouds,0,2013-02-25 09:53:00
1:53 AM,-20.9,-27.9,70,29.81,10.0,SW,3.5,-,N/A,,Overcast,220,2013-02-25 10:53:00
3:53 AM,-20.0,-25.1,78,29.82,4.0,Calm,Calm,-,0.00,Snow,Light Snow,0,2013-02-25 12:53:00
4:08 AM,-20.2,-25.6,76,29.82,2.5,Calm,Calm,-,0.00,Snow,Light Snow,0,2013-02-25 13:08:00
4:26 AM,-18.4,-25.6,70,29.82,3.0,Calm,Calm,-,0.00,Snow,Light Snow,0,2013-02-25 13:26:00
4:53 AM,-18.9,-24.0,78,29.83,2.5,Calm,Calm,-,0.01,Snow,Light Snow,0,2013-02-25 13:53:00
5:00 AM,-18.4,-23.8,76,29.82,3.0,Calm,Calm,-,0.00,Snow,Light Snow,0,2013-02-25 14:00:00
5:53 AM,-18.9,-24.0,78,29.83,3.0,Calm,Calm,-,0.00,Snow,Light Snow,0,2013-02-25 14:53:00
6:01 AM,-18.4,-23.8,76,29.83,2.5,Calm,Calm,-,0.00,Snow,Light Snow,0,2013-02-25 15:01:00
6:15 AM,-18.4,-23.8,76,29.83,5.0,Calm,Calm,-,0.00,Snow,Light Snow,0,2013-02-25 15:15:00
6:53 AM,-18.9,-25.1,74,29.84,9.0,WSW,3.5,-,0.00,,Overcast,240,2013-02-25 15:53:00
7:53 AM,-20.0,-25.1,78,29.86,4.0,West,6.9,-,0.00,Snow,Light Snow,260,2013-02-25 16:53:00
8:53 AM,-20.9,-27.0,73,29.86,5.0,West,4.6,-,0.00,Snow,Light Snow,270,2013-02-25 17:53:00
9:53 AM,-20.9,-27.0,73,29.88,3.0,West,5.8,-,0.00,Snow,Light Snow,270,2013-02-25 18:53:00
10:53 AM,-20.9,-27.0,73,29.90,3.0,West,8.1,-,0.01,Snow,Light Snow,270,2013-02-25 19:53:00
11:42 AM,-20.2,-25.6,76,29.91,7.0,WNW,4.6,-,0.00,,Mostly Cloudy,300,2013-02-25 20:42:00
11:53 AM,-20.0,-26.0,74,29.91,7.0,West,6.9,-,0.00,,Mostly Cloudy,280,2013-02-25 20:53:00
12:53 PM,-20.0,-26.0,74,29.93,3.0,West,11.5,-,0.00,Snow,Light Snow,260,2013-02-25 21:53:00
12:56 PM,-20.2,-25.6,76,29.93,2.5,West,10.4,-,0.00,Snow,Light Snow,260,2013-02-25 21:56:00
12:59 PM,-20.2,-25.6,76,29.93,3.0,West,9.2,-,0.00,Snow,Light Snow,260,2013-02-25 21:59:00
1:53 PM,-23.1,-29.0,74,29.95,5.0,West,12.7,-,0.00,,Mostly Cloudy,260,2013-02-25 22:53:00
2:08 PM,-22.0,-29.2,69,29.95,3.0,West,10.4,-,0.00,Snow,Light Snow,270,2013-02-25 23:08:00
2:21 PM,-22.0,-27.4,76,29.95,7.0,West,10.4,-,0.00,,Overcast,270,2013-02-25 23:21:00
2:53 PM,-20.9,-27.0,73,29.96,5.0,West,11.5,-,0.00,,Overcast,280,2013-02-25 23:53:00
3:08 PM,-20.2,-27.4,69,29.96,6.0,West,12.7,-,N/A,,Overcast,280,2013-02-26 00:08:00
3:53 PM,-20.0,-26.0,74,29.97,3.0,West,15.0,-,0.00,Snow,Light Snow,280,2013-02-26 00:53:00
4:14 PM,-20.2,-25.6,76,29.97,3.0,West,13.8,-,0.00,,Overcast,270,2013-02-26 01:14:00
4:53 PM,-20.0,-25.1,78,29.99,3.0,West,13.8,-,0.00,Snow,Light Snow,260,2013-02-26 01:53:00
5:53 PM,-18.9,-25.1,74,30.01,3.0,West,16.1,-,0.00,Snow,Light Snow,260,2013-02-26 02:53:00
6:53 PM,-18.9,-25.1,74,30.03,3.0,West,15.0,-,0.00,Snow,Light Snow,270,2013-02-26 03:53:00
7:53 PM,-20.9,-26.0,77,30.04,10.0,West,9.2,-,0.00,,Overcast,270,2013-02-26 04:53:00
8:53 PM,-29.0,-34.1,77,30.04,6.0,West,13.8,-,N/A,,Haze,260,2013-02-26 05:53:00
9:53 PM,-31.0,-9999,N/A,30.05,3.0,West,10.4,-,N/A,,Clear,270,2013-02-26 06:53:00
10:45 PM,-32.8,-9999,N/A,30.07,2.5,WSW,5.8,-,N/A,,Partly Cloudy,250,2013-02-26 07:45:00
10:50 PM,-32.8,-9999,N/A,30.07,3.0,WSW,6.9,-,N/A,,Mostly Cloudy,250,2013-02-26 07:50:00
10:53 PM,-33.0,-9999,N/A,30.07,3.0,WSW,6.9,-,N/A,,Mostly Cloudy,250,2013-02-26 07:53:00
11:00 PM,-32.8,-9999,N/A,30.07,2.0,WSW,6.9,-,N/A,,Mostly Cloudy,250,2013-02-26 08:00:00
11:07 PM,-32.8,-9999,N/A,30.08,3.0,WSW,9.2,-,N/A,,Scattered Clouds,250,2013-02-26 08:07:00
11:53 PM,-35.0,-9999,N/A,30.09,4.0,West,6.9,-,N/A,,Clear,280,2013-02-26 08:53:00